Skip Page Navigation
NASA JPL Caltech
NASA Logo - Jet Propulsion Laboratory + View the NASA Portal
+ Center for Near-Earth Object Studies
JPL Home Earth Solar System Stars & Galaxies Technology
JPL Solar System Dynamics
BODIES ORBITS EPHEMERIDES TOOLS PHYSICAL DATA DISCOVERY FAQ SITE MAP
JPL Small-Body Database Browser
Search: [ help ]  
213092 (1999 UC19)
Classification: Main-belt Asteroid          SPK-ID: 2213092
Ephemeris | Orbit Diagram | Orbital Elements | Mission Design | Physical Parameters | Discovery Circumstances | Close-Approach Data ]

[ show orbit diagram ]
Orbital Elements at Epoch 2459200.5 (2020-Dec-17.0) TDB
Reference: JPL 15 (heliocentric ecliptic J2000)
 Element Value Uncertainty (1-sigma)   Units 
e .1443847686367325 7.3136e-08  
a 2.46192868013194 1.9836e-08 au
q 2.106463677250954 1.7482e-07 au
i 5.098803206301953 7.4538e-06 deg
node 36.42998883768841 4.8144e-05 deg
peri 177.1696502321137 5.072e-05 deg
M 347.795984135642 1.5659e-05 deg
tp 2459248.331267669618
(2021-Feb-02.83126767)
6.1603e-05 TDB
period 1410.950014523621
3.86
1.7052e-05
4.669e-08
d
yr
n .2551472385940949 3.0836e-09 deg/d
Q 2.817393683012927 2.27e-08 au
  Orbit Determination Parameters
   # obs. used (total)      255  
   data-arc span      7389 days (20.23 yr)  
   first obs. used      1999-10-12  
   last obs. used      2020-01-04  
   planetary ephem.      DE441  
   SB-pert. ephem.      SB441-N16  
   condition code      0  
   norm. resid. RMS      .5831  
   source      ORB  
   producer      Otto Matic  
   solution date      2021-Apr-13 23:41:18  

Additional Information
 Earth MOID = 1.09911 au 
 Jupiter MOID = 2.14634 au 
 T_jup = 3.469 
[ show covariance matrix ]

Ephemeris | Orbit Diagram | Orbital Elements | Mission Design | Physical Parameters | Discovery Circumstances | Close-Approach Data ]

Physical Parameter Table
Parameter Symbol Value Units Sigma Reference Notes
absolute magnitude H 16.9   n/a MPO454529  

213092 (1999 UC19)          Discovered 1999-Oct-30 by Spacewatch at Kitt Peak
Reference: 20090509/Numbers.arcLast Updated: 2009-05-11

[ show close-approach data ]
Alternate Designations
 1999 UC19 = 2003 UZ108 
Ephemeris | Orbit Diagram | Orbital Elements | Mission Design | Physical Parameters | Discovery Circumstances | Close-Approach Data ]
ABOUT SSD CREDITS/AWARDS PRIVACY/COPYRIGHT GLOSSARY LINKS
FirstGov 2021-May-17 23:36 UT
(server date/time)  
NASA Home Page
Site Manager:   Ryan S. Park
Webmaster  Alan B. Chamberlin